Tracking 19146 objects as of 23-Apr-2018
HD Live streaming from Space Station
objects crossing your sky now

AMC-15

Track AMC-15 now!
AMC-15 is classified as:


NORAD ID: 28446
Int'l Code: 2004-041A
Perigee: 35,782.6 km
Apogee: 35,804.9 km
Inclination: 0.1 °
Period: 1,436.1 minutes
Semi major axis: 42164 km
RCS: 20.7825 m2 (large)
Launch date: October 14, 2004
Source: SOCIETE EUROPEENNE DES SATELLITES (SES)
Launch site: TYURATAM MISSILE AND SPACE COMPLEX (TTMTR)

Hybrid Ku-Ka-band satellite; CONUS, Alaska, Hawaii.
aabbcc
Your satellite tracking list
Your tracking list is empty




NASA's NSSDC Master Catalog

Two Line Element Set (TLE):
1 28446U 04041A   18112.60812883 -.00000108 +00000-0 +00000-0 0  9992
2 28446 000.0537 069.1999 0002642 322.1091 293.1640 01.00271808049539
Source of the keplerian elements: AFSPC